PROFILE

 METAR AND TAF INFORMATION
ADDS - METARS form results

(0041 UTC 02 June 2020)
http://aviationweather.gov/metar/data/
 
LOWS 020020Z AUTO 15002KT 9999 FEW070 11/08 Q1019
LOWS 012350Z AUTO 18002KT 9999 NCD 10/08 Q1019
TAF LOWS 012315Z 0200/0224 15005KT CAVOK TX22/0214Z TN10/0204Z BECMG 0207/0209 01006KT 9999 FEW060 BECMG 0217/0219 15006KT CAVOK 

 AIRPORT MAP

 RUNWAY INFORMATION
Runway 16 Runway length 9022 ft Runway width 148 ft
Runway elevation 1411 ft Runway displaced threshold 656 ft Runway heading 157
Runway 34 Runway length 9022 ft Runway width 148 ft
Runway elevation 1411 ft Runway displaced threshold 787 ft Runway heading 337

 AIRPORT FREQUENCIES
Type APP Name APP Frequency 123.725 MHZ
Type ATIS Name ATIS Frequency 125.725 MHZ
Type GND Name GND Frequency 121.75 MHZ
Type TWR Name TWR Frequency 118.1 MHZ

 AIRPORT NEAR NAVIGATION AIDS
Type VOR-DME Name Salzburg Frequency 113800 KHZ
Type NDB Name Salzburg Frequency 382 KHZ
Type NDB Name Salzburg Frequency 410 KHZ
Type NDB Name Salzburg Frequency 356 KHZ